Wind_Speed
29 29 29 29 29 29 29 29 28 28 27 27 28 28 28 28 29 29 29 29 29 30 31 31 31 32 32 32 32 33 33 34 34 34 34 35 35 35 35 34 34 34 34 33 32 31 30 29 29 29 29 29 30 30 29 28 27 27 27 27 27 27 27 28 28 28 28 28 29
30 30 29 29 28 28 27 27 27 27 27 27 27 28 28 28 29 29 30 30 30 31 32 32 33 33 33 34 33 33 34 35 35 35 35 36 36 36 36 35 35 35 34 34 33 32 30 29 28 28 29 28 28 28 28 27 26 25 26 27 27 26 26 27 28 28 28 28 29
29 29 28 27 27 26 26 27 27 27 28 28 28 28 29 29 30 30 31 31 31 32 32 32 33 33 34 34 34 33 33 34 34 34 34 34 34 34 34 34 34 34 33 32 32 31 29 28 27 27 28 28 28 27 27 26 25 25 25 27 26 25 25 26 27 28 27 27 28
28 27 27 26 26 26 26 27 28 28 29 29 29 30 30 30 30 31 31 32 32 32 32 32 32 33 33 33 33 33 33 33 34 34 34 35 34 34 34 34 33 33 33 32 31 31 30 28 28 28 28 29 29 28 28 28 26 25 25 26 25 24 24 25 25 26 26 26 27
26 25 25 25 25 26 27 27 28 29 30 30 30 31 30 30 31 31 32 32 32 32 32 32 33 33 34 34 34 35 35 35 35 35 35 35 35 35 34 33 33 33 33 32 31 31 30 30 29 29 29 29 29 29 29 28 27 27 26 26 25 25 25 25 25 25 25 26 26
25 25 25 25 26 27 28 28 29 30 31 31 31 32 32 31 31 31 32 33 33 34 34 34 35 35 36 36 36 36 36 35 35 35 35 35 35 35 35 34 33 33 32 31 31 30 30 29 29 28 28 29 30 30 30 29 27 27 26 26 26 26 25 26 26 26 25 26 26
26 26 27 27 28 29 30 31 31 31 32 32 32 33 33 33 33 34 35 35 35 36 36 35 35 35 35 35 35 35 35 35 35 36 36 35 36 35 35 35 34 34 33 32 31 30 30 30 28 28 29 30 29 30 30 29 27 27 27 27 26 26 25 26 26 26 26 27 27
27 28 28 29 30 31 32 32 32 32 32 31 32 33 33 34 34 35 36 36 36 36 36 35 35 36 35 35 36 36 37 37 37 37 37 37 37 37 37 36 36 36 36 35 34 33 32 31 30 30 30 31 30 29 29 28 28 28 28 28 27 26 25 26 26 26 26 27 28
29 29 30 30 30 31 32 32 32 32 32 33 33 33 34 34 35 36 36 35 35 35 35 35 36 36 36 37 37 38 38 37 38 38 38 38 37 37 37 36 36 36 36 35 34 34 33 32 31 31 31 30 30 30 29 28 28 28 29 29 28 27 26 26 26 26 27 28 28
30 30 31 31 31 31 31 31 31 32 32 33 33 33 33 34 35 35 35 35 35 35 35 35 36 36 37 37 38 38 38 38 38 38 39 38 38 38 37 36 36 35 35 34 33 32 32 31 32 32 32 32 32 32 31 30 29 30 30 28 28 28 28 27 27 27 27 28 29
31 31 31 31 31 31 31 31 31 31 32 32 33 33 33 34 34 35 35 35 35 36 37 36 37 37 37 38 38 38 38 38 37 38 38 38 38 38 38 37 37 36 36 34 33 32 31 31 32 33 34 33 33 33 33 32 32 32 32 31 30 30 30 29 29 28 28 28 29
31 31 31 31 31 31 31 31 31 31 32 32 33 34 34 34 34 35 35 36 36 37 37 37 37 37 38 37 38 37 37 38 38 38 39 39 38 38 38 39 38 38 37 37 35 34 33 33 33 34 35 35 34 33 32 32 32 32 32 32 32 31 31 31 31 30 29 28 28
30 30 31 31 31 31 31 32 31 32 32 33 33 33 33 34 34 34 34 35 35 35 35 35 36 36 36 36 37 37 36 37 37 37 37 38 37 37 37 38 37 37 37 37 36 35 35 35 36 36 36 36 35 34 33 32 32 32 32 32 32 32 32 32 31 30 30 30 30
30 30 30 31 31 31 31 31 31 31 31 32 32 32 32 32 32 32 32 33 33 34 34 34 35 35 35 35 36 36 37 37 37 37 37 37 37 37 36 36 36 35 35 34 34 34 35 35 36 37 37 37 37 36 35 34 33 32 32 32 32 32 32 32 31 30 30 31 32
30 30 31 31 31 31 31 31 30 30 30 31 31 31 30 30 31 31 32 33 33 34 34 34 34 34 35 36 36 37 38 38 38 38 39 39 39 39 38 37 37 37 35 35 33 33 33 34 35 35 35 36 37 37 36 35 35 34 34 33 33 33 32 32 31 30 30 30 31
30 30 31 31 31 31 31 30 29 29 30 31 31 31 31 31 32 32 33 33 34 34 34 35 35 35 35 36 37 37 38 38 38 39 39 40 40 40 39 39 39 39 38 37 37 36 36 35 35 34 34 35 35 35 35 35 35 35 35 35 35 34 33 32 31 31 31 31 31
31 31 31 31 31 31 30 30 29 29 30 31 32 33 32 33 32 32 33 33 34 34 35 36 36 36 36 37 37 37 37 38 38 38 39 39 39 39 39 39 39 39 38 38 38 38 39 38 37 37 36 36 35 35 35 35 35 35 36 36 36 35 34 34 33 32 32 32 32
31 31 31 31 31 31 31 31 31 31 32 32 33 34 34 33 33 33 34 34 34 35 37 37 38 38 38 38 38 37 37 38 38 38 39 39 39 40 40 40 39 39 38 39 39 39 39 39 40 39 38 37 37 37 36 36 35 35 36 36 36 36 35 35 34 33 33 33 33
31 31 31 31 31 31 31 32 32 33 33 33 34 34 34 35 35 35 35 36 36 37 37 39 39 39 39 39 39 39 38 38 39 40 40 40 40 40 40 40 41 40 39 40 40 40 40 40 39 39 39 38 38 38 38 38 36 36 36 36 36 36 36 35 35 34 34 33 33
31 31 30 30 31 31 32 33 33 34 34 34 34 34 35 37 37 36 37 37 38 38 38 39 40 39 39 39 40 40 40 39 40 40 41 41 41 40 41 41 41 41 40 41 41 40 40 41 40 39 39 39 39 39 39 38 37 36 36 36 36 36 36 36 35 35 35 35 34
30 30 31 31 31 32 33 33 34 34 35 35 35 35 35 36 37 37 37 37 38 38 38 39 39 40 40 40 40 40 40 39 39 40 40 40 40 40 41 41 40 40 40 40 40 40 41 41 40 40 39 39 39 39 38 37 37 37 36 35 35 36 36 35 35 35 35 36 36
30 31 31 32 32 33 34 34 35 35 36 36 35 35 36 36 36 37 37 37 38 38 38 38 39 39 39 39 39 39 39 39 39 39 39 39 39 40 40 40 40 40 40 40 40 40 40 40 40 40 39 39 39 38 38 37 36 36 36 36 36 35 35 35 35 35 35 35 36
31 31 32 32 33 33 33 34 34 35 35 35 35 35 36 36 37 37 38 37 37 38 38 38 38 38 38 39 39 39 39 39 39 39 40 40 40 40 40 40 40 40 40 40 39 39 39 39 39 39 39 38 38 38 38 38 37 36 35 36 36 36 35 35 35 35 35 35 34
31 32 32 32 32 33 33 33 34 34 34 34 34 35 35 36 36 37 37 37 37 37 37 37 37 37 38 38 38 38 38 39 39 40 40 40 40 40 40 40 39 39 39 39 39 38 38 36 36 36 37 37 37 37 38 38 37 36 36 36 36 35 35 35 35 34 34 34 33
32 33 33 33 34 33 33 33 34 34 34 34 34 35 35 35 35 35 35 36 36 37 37 37 37 37 37 37 37 37 37 37 37 38 38 39 39 39 39 39 38 38 38 38 39 41 41 39 37 35 34 34 35 35 36 36 37 37 36 36 35 35 34 35 35 35 34 34 33
33 33 33 33 33 33 33 33 34 34 34 34 34 35 35 35 35 35 35 35 36 36 36 36 36 35 35 35 35 35 35 35 35 35 36 36 37 38 37 37 36 35 36 37 39 41 43 44 43 41 37 34 33 33 34 35 35 36 36 36 35 34 33 33 34 34 34 34 33
32 32 32 32 33 33 33 33 33 34 34 34 34 34 34 35 35 35 35 35 35 35 35 34 33 33 33 32 32 32 32 32 33 33 34 34 34 34 32 30 30 31 32 33 36 38 41 44 46 46 44 39 36 33 32 33 34 34 35 35 35 35 34 34 33 33 33 33 32
31 31 32 31 32 33 33 33 33 34 34 34 34 34 34 35 35 34 34 34 34 33 32 32 31 31 30 29 29 30 31 31 32 31 31 30 30 29 29 28 29 30 31 31 33 35 37 40 44 47 48 45 40 36 34 33 33 32 33 33 35 35 35 34 33 33 32 31 31
31 31 31 31 32 32 33 33 33 33 33 34 34 34 34 34 34 33 33 33 32 32 31 30 30 29 28 28 29 30 31 30 29 29 29 29 29 30 30 30 31 32 34 35 36 37 38 38 39 42 46 48 44 38 35 33 32 32 31 31 33 33 33 33 32 31 31 30 29
30 30 31 31 32 32 32 33 33 33 33 33 34 34 34 33 33 32 32 32 31 31 30 30 30 29 29 30 30 29 29 28 28 28 29 29 30 30 30 31 31 32 33 34 36 37 38 39 38 39 41 44 45 42 37 34 33 31 31 30 31 32 32 32 32 31 30 29 28
29 29 30 31 31 32 32 33 33 33 33 33 33 33 32 32 32 32 31 31 31 31 31 31 31 31 30 30 29 28 28 28 28 29 29 30 31 31 32 33 34 34 35 36 36 37 38 38 39 38 38 40 43 42 39 37 35 32 31 30 31 31 31 31 31 31 30 30 29
29 29 30 30 31 32 32 32 33 33 33 33 32 32 31 31 31 31 31 31 31 31 31 30 30 30 30 29 28 28 28 29 29 30 30 31 32 33 34 34 35 35 36 36 36 37 37 37 38 38 37 37 39 40 41 39 37 34 32 32 31 32 32 30 29 29 30 31 30
29 29 30 30 31 32 32 32 32 32 32 32 32 31 31 31 31 31 31 31 30 30 30 30 30 29 29 28 28 28 29 29 30 31 32 33 33 34 35 35 34 35 35 36 37 37 37 37 37 37 37 36 35 36 39 40 37 34 33 32 32 32 32 31 29 28 28 29 30
29 29 30 30 31 32 32 32 32 32 32 32 32 32 31 31 31 31 31 30 30 30 29 29 29 29 28 28 28 28 29 30 31 32 33 33 34 35 35 35 33 34 36 38 39 39 39 39 38 37 37 35 32 32 35 38 37 34 32 32 31 31 31 31 30 29 28 28 29
29 29 30 30 31 31 31 32 32 32 32 32 32 32 32 31 31 31 31 30 30 29 29 28 28 28 28 27 28 29 30 31 32 33 33 34 34 34 35 35 36 38 40 41 41 41 40 39 38 37 36 34 29 28 31 36 36 34 33 32 30 30 30 30 30 30 30 29 29
29 29 30 31 31 31 31 31 31 32 32 32 32 32 32 32 31 31 30 31 30 29 28 28 28 28 28 28 29 30 30 31 32 33 34 34 34 34 35 36 38 41 42 43 43 42 42 40 38 37 34 30 26 25 28 32 33 33 32 31 29 29 29 29 29 29 30 30 30
29 29 30 30 31 31 31 31 31 31 31 31 31 32 32 32 31 30 30 29 28 28 28 28 28 27 28 29 29 30 31 32 33 33 34 34 34 34 35 37 39 42 44 44 44 45 43 39 36 33 31 27 23 24 27 29 30 30 30 28 28 27 27 27 28 28 29 29 29
29 29 30 30 30 30 31 31 31 31 31 31 31 31 31 31 30 30 29 29 28 27 28 27 27 27 28 29 29 30 31 32 33 33 33 34 34 35 36 38 40 42 44 45 47 46 39 31 28 28 27 26 25 25 26 27 26 27 26 25 24 22 21 21 22 24 26 28 29
29 29 29 29 30 30 30 30 30 31 31 31 31 31 31 30 29 28 28 28 28 27 27 27 27 28 29 30 29 30 31 32 33 33 33 34 34 35 36 38 39 42 44 47 50 41 25 19 25 29 29 28 27 26 25 24 24 23 21 19 16 13 10 9 10 13 18 22 24
28 29 29 29 29 29 29 29 30 30 31 31 31 32 31 30 29 28 28 28 28 28 27 26 27 28 29 30 29 30 31 32 33 34 34 34 35 35 36 37 39 41 45 49 51 34 7 18 28 32 32 30 27 25 23 22 20 19 18 16 16 15 15 13 11 8 4 5 10
28 29 29 29 29 29 29 29 30 31 32 32 32 31 30 29 28 28 28 28 28 28 27 26 27 28 29 29 29 29 29 31 33 34 34 34 34 35 35 36 38 41 46 49 50 35 15 24 32 34 33 28 26 24 23 22 21 20 19 18 18 18 19 19 20 20 20 17 12
Wind_Direction
311 309 307 305 303 301 299 297 295 294 292 291 290 289 289 288 286 285 285 284 283 283 283 283 282 282 283 283 284 284 285 285 284 285 284 284 283 283 283 283 282 282 281 281 281 281 280 280 279 278 277 277 277 276 274 272 270 268 266 264 262 262 263 265 267 271 275 276 271
309 307 305 303 301 299 298 296 295 293 292 290 289 288 288 287 285 285 284 283 282 282 282 282 281 281 282 282 282 283 283 283 283 283 282 282 281 281 281 280 280 279 279 279 278 278 277 276 275 274 274 274 273 273 271 270 268 267 265 263 261 261 261 262 263 265 268 271 271
307 306 304 302 300 298 297 295 294 292 291 290 288 287 286 285 284 283 283 282 282 281 281 281 281 280 281 281 281 281 280 281 281 281 280 280 279 279 278 278 278 277 276 275 275 274 273 272 271 271 271 271 270 269 269 269 268 267 265 263 261 260 259 258 259 260 261 263 265
306 304 303 300 299 297 295 294 293 292 291 290 289 287 286 284 283 282 282 282 281 280 280 279 280 280 280 280 280 280 279 279 280 279 279 279 278 278 277 276 276 275 274 273 272 271 270 269 268 268 268 268 267 267 267 268 267 266 265 263 262 259 257 256 256 256 257 259 261
305 303 301 300 298 297 295 293 292 292 291 290 289 287 286 284 283 282 282 281 281 280 279 279 280 280 280 280 280 280 280 280 279 279 278 278 277 277 276 275 274 274 273 272 270 269 268 266 266 266 265 265 265 264 264 265 265 265 264 263 261 258 256 255 254 253 254 256 259
304 303 301 300 298 297 296 294 293 292 291 290 288 286 285 284 283 282 281 281 280 280 280 280 280 280 280 280 280 280 280 279 278 278 277 277 277 276 275 274 273 273 272 271 270 269 267 266 265 264 263 263 263 262 262 262 262 261 261 260 258 256 255 254 252 252 252 254 257
303 302 301 300 299 297 296 294 293 292 290 289 287 285 284 283 282 281 280 280 281 281 281 281 280 280 280 280 279 279 279 278 278 277 277 276 276 276 275 274 273 273 272 271 270 270 269 267 265 264 263 263 262 262 261 259 258 258 258 258 257 256 254 252 251 250 250 252 254
302 301 300 299 298 296 295 294 292 291 289 287 285 284 283 282 282 282 281 281 280 280 280 280 279 279 279 279 278 278 278 278 277 277 276 275 275 274 273 273 272 271 270 269 268 267 266 265 264 262 262 262 261 261 259 257 256 256 257 257 258 257 255 253 251 250 249 249 251
302 301 300 299 297 296 295 293 292 290 288 287 285 284 284 283 283 283 282 281 281 280 280 280 279 279 278 277 277 277 277 276 276 275 275 274 273 272 272 271 270 269 268 267 265 264 262 261 260 259 258 258 258 258 258 257 256 256 256 257 258 258 256 255 253 251 249 248 249
302 301 301 299 298 296 295 294 292 290 289 288 287 285 284 284 283 283 282 281 280 280 279 278 278 278 277 276 275 275 275 275 274 274 274 273 271 271 270 269 268 267 267 265 264 262 260 258 257 256 255 256 256 256 257 256 255 255 256 256 257 257 258 257 256 254 251 249 248
303 302 301 300 299 298 297 295 294 292 290 289 288 287 285 284 283 282 281 280 280 279 278 277 277 276 276 275 274 274 273 273 272 272 272 271 270 269 269 268 267 266 265 264 263 261 260 258 257 256 255 254 254 255 255 255 254 254 254 254 255 256 257 258 257 256 254 251 249
303 303 302 301 300 299 298 296 294 293 291 290 289 287 285 284 283 282 281 280 280 279 278 277 276 276 275 274 273 273 272 272 271 271 270 269 268 267 266 266 266 264 263 262 261 259 258 257 256 256 255 255 254 254 254 253 252 252 252 252 252 253 254 255 255 255 254 253 251
303 303 302 301 300 299 298 296 294 293 291 290 289 287 286 285 284 283 282 281 280 279 278 278 277 276 275 274 274 273 272 272 271 270 269 269 268 267 266 265 264 263 261 260 258 256 254 253 253 254 254 254 253 252 252 252 251 251 250 251 251 251 251 251 252 252 252 252 251
303 302 302 301 300 299 297 296 294 292 291 290 289 288 287 287 287 285 284 282 281 280 280 279 278 277 276 275 275 274 274 273 273 272 271 270 269 269 268 267 266 264 262 261 258 255 253 251 251 251 251 251 251 251 250 250 250 250 250 250 250 250 250 250 250 250 250 249 249
303 302 302 301 300 299 297 295 293 292 291 291 291 290 290 289 289 287 286 285 283 282 282 281 279 278 278 277 276 275 275 274 273 272 272 271 270 270 269 268 267 266 265 264 262 260 257 254 253 252 250 249 250 249 249 248 248 249 249 249 250 250 250 250 251 250 249 248 247
303 303 302 301 299 298 297 296 294 293 293 293 294 293 292 291 290 289 287 286 285 283 282 282 280 279 279 278 277 276 275 274 272 272 271 270 270 269 268 267 266 265 264 263 263 261 260 258 257 256 254 253 252 250 248 247 247 247 247 248 249 249 250 250 250 250 250 249 248
304 303 302 301 300 299 298 297 296 295 295 295 295 294 293 293 291 290 288 287 285 284 283 282 281 280 280 279 278 276 275 273 272 271 270 269 268 268 267 266 265 264 263 262 261 260 259 258 257 257 257 256 255 254 252 250 247 246 246 247 247 248 248 248 249 250 250 250 249
305 304 303 302 301 301 300 299 298 298 297 296 296 295 294 293 292 290 289 287 286 285 284 283 282 281 280 279 277 276 274 273 272 270 269 268 268 267 267 265 264 263 262 261 260 258 257 256 256 256 255 255 255 255 255 253 250 248 247 246 246 247 247 247 247 248 249 249 249
305 305 304 304 303 303 302 302 301 300 299 297 297 295 294 294 293 291 290 289 287 286 284 283 283 281 279 278 277 275 274 272 271 270 269 268 267 266 265 264 264 263 261 260 259 257 256 255 254 253 252 252 252 252 253 253 251 249 247 246 245 245 245 245 245 246 246 247 248
306 306 305 305 305 304 304 303 302 301 300 299 297 295 294 295 294 293 291 290 289 287 286 284 283 282 281 279 277 276 274 272 272 271 269 268 267 266 264 264 263 262 260 258 257 255 254 254 253 251 250 249 249 249 250 250 249 249 247 246 245 244 244 244 244 244 244 245 247
307 307 306 306 305 305 304 303 302 301 300 299 298 296 295 295 295 294 292 291 291 289 287 285 284 283 281 280 278 276 275 274 273 272 270 269 267 266 265 264 262 261 259 257 255 254 253 252 251 250 248 247 247 246 246 247 247 247 246 245 244 243 243 242 242 242 242 243 244
308 308 308 307 306 305 304 304 303 302 302 301 299 298 297 295 295 295 294 293 292 291 289 287 285 284 282 281 279 278 277 276 274 273 271 270 269 267 266 264 262 261 259 257 255 253 252 251 249 248 247 246 245 245 244 244 245 245 245 244 243 242 242 242 241 241 240 240 241
309 309 309 308 307 305 304 303 303 303 302 302 300 299 298 297 296 296 296 295 294 292 291 289 287 286 285 283 282 280 279 278 276 275 273 271 270 269 267 265 263 261 259 257 255 253 251 250 248 247 245 244 243 243 243 243 243 243 244 243 243 242 241 241 241 240 240 239 239
310 310 309 308 307 306 305 304 304 304 303 302 302 301 300 299 299 298 298 297 296 294 292 291 289 288 287 286 284 283 281 279 278 277 275 273 272 270 268 266 264 261 259 257 254 252 249 248 247 246 244 242 241 241 241 240 240 241 241 242 242 241 241 240 240 239 239 239 239
311 310 310 309 308 307 306 306 306 305 305 304 303 303 302 302 301 300 299 299 298 296 294 293 292 291 290 288 287 285 284 281 279 278 277 276 274 271 269 266 264 261 258 256 253 251 249 246 244 244 243 241 240 240 239 238 238 238 239 239 240 240 240 239 239 239 239 239 239
311 309 308 310 309 308 308 308 308 307 307 306 306 305 305 304 304 303 302 300 299 298 297 296 295 294 293 291 289 288 286 284 282 280 279 277 275 273 270 267 264 261 259 256 253 250 248 245 243 242 241 240 239 238 238 237 236 235 236 236 237 238 238 238 238 238 238 239 239
309 308 309 310 310 310 310 310 310 310 309 309 309 308 308 307 306 305 303 302 301 300 300 299 298 297 295 293 291 289 287 286 285 283 281 279 278 277 276 274 273 272 269 263 259 254 249 246 243 241 239 238 237 236 236 236 235 233 233 233 234 235 235 236 236 237 237 238 238
309 310 311 311 312 312 312 312 312 313 312 312 311 311 310 309 308 306 305 304 304 304 303 302 301 299 297 295 293 292 291 290 289 288 287 287 287 287 288 288 286 284 281 278 274 268 261 253 246 242 239 237 235 235 234 234 233 232 231 230 232 232 233 233 234 235 236 236 237
310 312 313 314 314 314 315 315 315 315 314 314 314 313 312 311 309 308 307 307 307 306 305 304 303 301 299 297 296 296 296 296 295 295 296 296 295 294 293 291 289 286 284 282 280 276 272 266 258 249 242 237 234 233 232 231 231 230 229 229 229 229 229 230 232 233 234 235 235
313 315 317 317 316 316 317 317 317 317 317 316 316 315 313 312 311 310 310 310 309 308 307 306 304 303 301 300 300 300 301 302 303 303 302 300 299 297 295 294 291 289 286 283 280 277 274 271 266 259 250 241 235 232 230 229 228 228 227 226 226 226 226 227 228 229 231 232 233
317 318 319 319 319 319 319 319 319 319 318 317 317 316 315 314 314 313 312 312 310 309 309 308 307 306 305 305 305 306 307 309 309 308 306 304 303 301 299 297 295 293 290 287 283 279 275 271 266 263 257 249 239 232 229 227 226 225 224 224 224 224 223 224 225 227 227 228 229
321 321 321 321 321 321 321 321 321 321 320 319 319 318 317 316 316 315 314 313 312 312 312 311 311 310 310 311 312 312 314 314 313 312 310 308 306 305 303 300 298 296 293 290 286 283 278 273 267 263 260 255 246 236 229 225 223 222 222 222 222 222 221 221 223 224 224 224 225
324 324 324 323 323 323 323 323 323 322 322 322 322 321 320 318 318 317 317 316 316 315 315 315 314 314 315 315 317 318 318 318 317 315 313 311 309 307 305 303 301 299 296 293 290 286 281 276 270 264 260 257 252 241 230 223 220 219 219 219 220 220 220 221 223 225 226 226 225
327 326 326 326 325 325 325 325 325 325 325 324 324 324 323 321 320 319 319 318 317 317 317 317 317 317 318 319 321 322 322 321 320 318 316 314 312 310 308 305 303 302 300 297 293 289 284 278 272 265 260 257 253 242 229 220 216 215 215 216 217 218 219 220 224 228 232 233 231
329 329 328 328 327 326 326 326 327 327 327 327 327 326 325 324 323 321 320 319 319 319 319 319 320 321 322 324 326 327 326 325 322 320 318 317 315 312 310 308 306 305 304 301 297 292 286 279 272 265 258 253 247 236 223 214 211 210 211 213 214 216 217 219 223 227 233 238 240
331 331 330 329 328 328 328 328 329 329 330 329 329 327 326 325 324 323 322 322 322 322 322 323 324 325 327 329 330 331 329 327 325 323 321 319 318 315 313 312 310 310 309 305 301 296 289 281 271 262 254 246 236 224 212 206 205 206 207 209 211 213 215 218 222 226 231 237 242
333 333 332 331 330 330 330 331 331 331 331 331 330 329 327 326 325 325 325 325 325 326 327 327 328 330 331 333 332 332 331 329 327 325 324 323 322 319 317 316 315 314 313 310 306 301 294 282 268 254 242 230 217 205 199 197 198 200 203 206 210 213 216 219 223 227 231 236 240
334 334 333 333 332 332 332 333 333 333 333 331 331 330 329 328 327 327 328 329 329 329 329 330 331 333 334 335 334 334 333 333 332 330 328 327 326 324 322 320 319 319 318 317 315 310 298 276 250 230 217 205 195 189 187 187 190 195 199 202 207 211 215 218 222 226 231 235 240
336 335 335 334 333 333 333 334 335 335 334 333 332 332 331 331 329 329 330 332 333 333 333 333 334 336 337 338 337 337 337 337 337 334 331 330 330 330 328 325 324 324 326 328 329 323 301 244 211 198 189 181 177 176 177 178 181 184 185 184 179 173 171 179 198 215 225 233 239
337 337 337 337 336 335 335 336 337 337 336 335 335 334 334 332 331 332 334 336 338 339 338 337 338 339 340 341 342 341 341 340 340 337 335 333 334 334 333 331 331 333 336 341 347 347 319 186 177 172 168 165 164 164 164 164 161 157 150 139 124 108 95 89 89 100 137 201 230
339 340 339 339 338 338 338 338 339 339 339 338 337 335 334 333 334 335 338 340 342 343 342 341 341 342 344 346 346 344 342 341 341 340 339 337 337 338 338 338 340 343 348 353 3 18 72 143 152 153 152 151 151 149 146 140 130 122 116 108 100 91 82 74 70 68 67 67 67
Height
759 758 757 757 755 754 752 751 750 749 747 746 744 742 741 740 737 735 734 733 731 729 727 725 723 722 720 719 719 717 716 715 714 713 712 711 709 708 708 707 707 706 705 705 705 705 705 704 705 704 703 701 699 697 696 695 695 694 694 693 692 691 691 690 689 688 687 687 686
757 757 756 755 753 752 751 749 747 747 745 744 742 741 739 738 736 733 732 730 729 727 725 723 721 720 718 717 717 716 714 712 712 711 709 708 707 706 706 705 704 704 703 703 702 702 702 702 702 702 700 698 697 695 693 692 692 692 691 690 689 688 688 687 686 685 685 685 684
756 755 754 752 752 750 749 747 746 744 743 742 741 739 737 736 734 732 730 728 726 725 723 721 719 717 716 715 714 713 712 711 709 708 707 706 704 704 703 702 702 701 701 700 700 700 700 700 700 699 697 696 694 692 690 689 690 689 688 687 686 686 685 684 683 683 683 682 682
754 753 752 751 750 749 747 746 744 742 741 740 738 737 735 734 732 730 727 725 724 722 721 719 717 715 714 712 711 710 709 708 707 706 704 703 702 701 701 700 699 698 698 698 697 697 697 697 697 696 694 692 691 689 688 687 687 687 685 684 683 683 682 681 680 680 680 679 678
752 752 751 749 748 747 746 744 742 741 739 738 737 735 733 732 730 727 725 723 722 720 718 717 715 713 711 710 709 707 707 706 704 703 702 700 699 698 698 697 697 696 695 695 695 694 694 695 694 692 691 689 688 686 685 684 684 684 683 682 681 680 678 677 677 677 677 676 676
751 750 749 748 747 745 744 742 741 739 737 736 734 732 731 729 727 725 723 721 719 717 716 714 712 711 709 707 706 705 704 702 702 701 699 697 696 696 695 694 694 693 693 692 692 692 692 692 691 689 687 686 684 682 682 682 682 681 680 679 677 676 676 675 674 674 674 673 673
750 748 747 746 745 743 742 740 739 737 736 734 732 730 728 727 725 723 721 719 717 715 713 712 710 708 707 705 703 702 701 700 698 697 697 695 694 693 692 692 691 691 690 690 690 689 689 689 688 686 684 683 681 679 678 679 679 678 677 675 674 673 673 672 671 671 671 670 670
748 747 745 744 742 741 740 738 737 735 733 731 729 727 725 724 722 720 718 716 714 712 710 709 707 706 704 703 701 699 698 697 696 694 693 692 691 690 689 688 688 687 687 687 687 686 686 686 685 683 681 679 678 676 675 675 676 675 673 672 671 670 670 669 668 668 667 667 667
746 745 743 742 740 739 737 736 734 732 731 728 726 724 723 721 719 717 715 713 711 709 708 706 704 703 702 700 698 697 695 694 692 691 690 689 687 686 685 685 684 683 683 683 683 683 682 682 681 679 677 676 674 673 672 672 672 672 671 669 668 667 667 666 666 665 664 664 664
744 742 741 739 737 736 735 733 731 730 727 725 723 722 720 718 716 715 712 710 708 706 705 703 701 700 698 697 695 693 692 691 689 687 686 685 684 683 682 681 681 680 679 679 679 679 678 678 676 674 673 672 671 670 669 670 670 669 667 667 666 665 664 663 663 662 662 661 661
742 740 739 737 735 734 732 730 728 727 725 722 720 718 717 715 713 711 709 707 705 703 701 700 698 697 695 693 691 690 688 687 686 684 682 681 680 679 678 677 677 676 676 675 676 676 675 673 672 670 669 668 667 667 666 666 666 665 664 663 663 662 662 661 660 660 659 658 658
740 738 737 735 733 732 730 728 726 724 722 720 717 716 714 712 710 708 706 704 702 700 697 696 695 693 691 689 687 686 685 683 682 680 678 677 676 675 674 673 672 672 671 671 672 672 671 669 667 666 665 664 664 663 663 662 662 662 661 660 660 659 658 657 657 657 657 656 655
738 736 734 733 731 729 727 725 723 721 719 717 715 712 711 708 707 705 703 701 698 696 694 693 692 690 688 686 684 682 681 679 678 676 674 673 672 671 670 669 668 667 667 666 667 666 665 664 663 662 661 660 660 660 659 659 659 658 657 656 656 656 655 654 654 654 654 654 653
737 735 733 731 729 727 725 723 721 718 716 714 712 710 708 706 704 702 700 698 696 693 692 690 688 687 685 683 681 679 677 676 674 673 671 669 668 667 666 665 664 663 663 662 662 661 660 659 658 657 657 656 655 655 655 656 655 654 654 653 652 652 651 651 651 651 651 651 650
735 733 731 729 727 725 723 721 718 716 713 711 709 707 706 703 701 699 697 695 693 691 689 687 685 683 681 680 678 676 674 673 671 669 667 666 664 664 662 662 661 660 660 659 658 657 657 655 654 653 652 652 651 651 651 651 651 650 650 649 648 648 647 647 648 648 648 647 647
733 731 729 727 725 723 721 718 716 714 711 709 707 705 703 701 699 697 695 692 690 688 686 684 682 680 678 676 675 673 671 669 667 665 663 662 660 659 658 657 657 656 656 655 654 653 652 652 651 650 649 648 647 646 646 646 646 646 646 645 645 645 644 644 645 645 645 644 644
731 729 727 725 723 721 718 717 714 712 709 707 705 703 701 699 696 694 692 690 687 685 682 680 679 677 674 672 671 669 667 665 663 661 659 657 656 655 654 653 652 651 651 651 650 648 648 647 647 647 646 645 643 643 642 642 642 642 641 641 641 641 641 641 642 642 642 641 640
729 727 725 723 721 718 716 714 712 710 707 705 702 700 698 696 694 691 689 687 685 682 679 677 675 673 671 669 667 665 663 661 659 657 655 653 652 650 649 648 647 647 646 646 644 643 642 642 642 642 642 641 640 639 639 638 638 637 637 637 637 637 637 637 638 638 638 638 637
727 725 723 721 718 716 714 712 710 707 705 702 700 698 696 693 691 689 686 683 682 679 677 673 671 669 667 665 662 661 659 657 654 652 650 648 647 646 644 643 642 642 641 640 639 638 637 637 637 637 637 636 635 635 634 634 634 633 632 632 632 632 633 633 634 635 635 635 634
725 723 721 719 717 714 712 710 707 705 702 700 697 695 693 691 688 686 683 680 678 676 673 670 667 665 663 661 658 656 654 652 650 647 645 644 642 641 639 638 637 636 635 634 633 632 632 632 631 631 631 631 630 630 630 630 629 629 628 628 628 628 628 629 630 631 631 632 631
724 722 719 717 715 712 710 707 705 703 700 697 695 692 690 687 685 683 680 677 674 672 670 667 664 661 659 657 654 652 650 648 646 643 641 639 637 636 634 633 632 631 629 629 628 627 626 626 626 626 626 626 625 625 625 625 624 624 624 623 623 623 624 625 626 627 627 628 628
722 720 718 715 713 711 708 706 703 700 698 695 692 690 687 684 682 679 677 674 671 669 666 663 660 658 655 652 650 648 645 643 641 639 637 635 632 631 630 629 627 625 624 623 622 621 621 621 620 621 621 621 620 620 620 620 620 619 619 619 619 619 620 621 622 622 623 623 624
721 718 716 713 711 708 706 703 701 698 695 692 690 687 684 682 679 676 673 671 668 665 662 660 657 654 652 649 647 644 641 639 637 634 632 630 628 626 625 624 622 620 618 617 617 616 616 616 615 615 615 615 615 615 615 615 615 615 615 614 614 615 616 616 617 618 619 619 620
719 717 715 712 709 707 704 701 698 696 693 690 687 685 682 679 676 673 670 667 665 662 659 656 653 650 648 645 643 640 637 635 632 629 627 626 624 622 620 619 617 615 613 612 611 611 611 610 610 610 610 610 610 609 610 610 610 610 610 610 610 611 611 612 613 614 614 615 616
718 716 713 710 707 704 702 699 697 694 691 688 685 682 679 676 673 670 667 664 662 659 656 653 650 647 644 642 639 636 634 631 628 625 623 621 619 617 615 613 612 609 607 606 605 604 604 605 605 605 605 605 605 604 605 605 605 605 606 606 606 607 607 607 608 609 610 611 612
716 714 711 708 706 703 700 697 695 692 689 686 683 680 677 674 671 668 665 662 658 656 652 650 647 644 641 638 635 633 630 628 625 622 619 617 614 612 611 608 606 604 602 600 599 598 598 598 599 599 600 600 600 600 600 600 600 600 601 602 602 602 603 603 604 605 606 607 608
715 712 709 707 704 701 698 696 693 690 687 683 681 677 674 671 668 665 662 659 656 653 650 647 644 641 638 635 632 630 627 625 622 619 617 614 611 609 607 605 603 600 598 596 594 593 592 592 592 593 594 595 595 595 595 595 595 596 597 597 597 598 599 599 599 600 602 603 604
713 710 707 705 702 700 697 694 691 688 685 682 678 675 672 669 666 663 660 657 653 650 647 644 642 639 636 633 630 627 625 622 619 617 614 611 608 606 604 602 600 597 595 593 592 590 589 588 587 587 587 589 590 590 591 591 591 591 592 592 593 593 594 595 595 596 597 599 600
712 709 706 703 701 698 695 692 689 686 683 680 677 673 670 667 664 661 657 654 651 648 645 642 639 636 633 630 627 625 622 619 617 614 611 609 606 604 601 599 596 594 592 590 588 587 585 584 583 583 583 583 585 585 586 586 587 587 587 588 588 589 590 591 592 593 594 595 597
711 708 705 702 699 696 693 691 687 684 681 678 675 672 668 665 662 659 656 652 649 647 643 641 637 634 631 628 625 622 620 617 614 612 609 606 603 600 598 595 592 590 587 585 583 582 580 579 578 578 578 579 579 580 581 581 582 582 583 583 584 584 586 587 588 589 590 592 593
709 707 704 701 698 695 692 689 686 683 680 677 673 670 667 664 660 657 654 651 648 645 642 639 636 632 629 627 623 621 618 615 612 610 607 604 600 597 594 591 588 585 582 580 578 576 574 573 572 572 573 574 574 575 575 576 577 577 578 579 579 581 582 583 584 585 587 588 589
708 706 703 700 697 694 691 688 685 682 679 676 672 669 666 662 659 656 653 650 646 643 640 637 634 630 627 624 622 619 616 613 610 607 604 601 598 594 591 587 584 581 577 575 572 570 568 567 566 566 566 567 569 569 570 571 572 573 574 575 576 577 578 580 581 582 583 584 585
707 705 702 699 696 693 690 687 684 681 677 674 671 668 665 661 658 654 651 648 645 642 638 635 632 629 626 623 620 617 614 611 608 605 602 599 596 592 588 584 580 576 572 569 567 564 562 560 559 559 560 561 562 564 564 565 567 568 570 571 572 574 575 577 578 578 579 580 581
707 704 701 698 695 692 689 686 683 680 677 673 670 667 663 660 657 653 650 647 643 641 637 634 632 628 625 622 619 616 613 610 607 604 601 597 593 589 585 581 576 572 568 564 561 558 555 553 552 552 552 554 556 557 559 560 562 564 566 567 569 571 572 574 575 576 576 577 577
706 703 700 697 694 691 688 685 682 679 676 672 669 666 662 659 656 652 649 646 642 639 637 633 631 627 624 621 618 615 612 609 606 602 599 595 591 587 582 577 572 567 563 558 554 550 547 545 544 544 545 547 550 552 553 555 557 560 562 564 566 568 570 571 573 573 574 574 574
706 703 700 697 694 691 688 685 682 678 675 672 668 665 661 658 654 651 648 645 642 639 636 632 629 626 623 620 617 614 611 608 605 601 597 593 589 585 580 574 568 563 557 552 546 542 538 536 535 535 537 541 544 546 547 550 553 556 558 561 563 565 567 569 570 571 572 572 572
705 703 700 697 694 691 687 684 681 678 675 671 668 664 661 657 654 651 647 644 641 638 635 632 629 626 623 620 617 614 611 608 604 600 596 592 588 583 578 572 565 558 551 545 538 532 527 524 524 526 530 535 538 540 543 547 550 553 556 559 561 563 565 567 568 569 569 569 569
705 703 700 697 694 691 687 684 681 678 674 671 667 664 661 657 653 650 647 644 642 638 635 632 629 626 623 620 617 614 611 607 604 600 596 591 587 582 577 570 562 554 546 538 529 520 512 510 512 517 522 528 532 536 540 543 547 551 554 557 560 562 564 565 565 566 566 566 566
705 703 700 697 694 691 688 685 682 678 675 671 667 664 660 657 654 651 647 645 642 639 635 632 629 626 623 620 617 613 610 607 603 600 596 591 587 582 576 569 561 552 542 532 520 507 497 497 502 509 517 523 528 533 537 541 546 550 553 557 559 561 562 562 562 562 563 563 563
705 703 700 697 694 691 688 685 682 678 675 672 668 664 661 657 654 651 648 645 642 639 636 633 630 627 624 621 617 614 610 607 603 599 595 591 587 582 576 569 561 551 540 528 514 499 489 490 497 506 514 521 527 532 536 540 544 548 552 555 557 559 559 560 560 560 561 561 561
705 703 700 697 694 692 688 685 682 679 675 672 668 665 661 658 655 652 648 645 642 639 636 633 631 628 625 622 618 615 611 607 603 599 596 592 587 582 576 570 562 552 541 530 517 503 495 496 502 509 516 522 527 531 535 539 543 547 551 554 555 557 558 559 560 560 559 559 559